Mansfield, OH

5:38 PM EST on January 22, 2017 (GMT -0500)
Mansfield Lahm Regional

Weather History for KMFD - January, 2014

Change the Weather History Date:

Saturday, January 11, 2014

  Actual Average Record
Temperature  
Mean Temperature 41 °F 25 °F  
Max Temperature 50 °F 33 °F 58 °F (2013)
Min Temperature 32 °F 18 °F -13 °F (1945)
Degree Days  
Heating Degree Days 24 40  
Month to date heating degree days 504 432  
Since 1 July heating degree days 2903 2809  
Cooling Degree Days 0 0  
Month to date cooling degree days 0 0  
Year to date cooling degree days 0 0  
Moisture  
Dew Point 42 °F    
Average Humidity 90    
Maximum Humidity 100    
Minimum Humidity 79    
Precipitation  
Precipitation 0.36 in 0.10 in 1.05 in (1980)
Month to date precipitation 1.34 1.10  
Year to date precipitation 1.34 1.10  
Snow  
Snow 0.00 in 0.40 in - ()
Month to date snowfall 10.9 4.7  
Since 1 July snowfall 27.8 17.9  
Snow Depth 0.00 in    
Sea Level Pressure  
Sea Level Pressure 29.55 in    
Wind  
Wind Speed 16 mph (SSW)    
Max Wind Speed 25 mph    
Max Gust Speed 109 mph    
Visibility 9 miles    
Events Rain    
T = Trace of Precipitation, MM = Missing Value Source: NWS Daily Summary

Daily Weather History Graph

Daily Weather History Graph

Search for Another Location

Airport or City:

Trip Planner

Search our weather history database for the weather conditions in past years. The results will help you decide how hot, cold, wet, or windy it might be!

Date:

Astronomy

Jan. 11, 2014 Rise Set
Actual Time 7:53 AM EST 5:22 PM EST
Civil Twilight 7:23 AM EST 5:53 PM EST
Nautical Twilight 6:49 AM EST 6:27 PM EST
Astronomical Twilight 6:16 AM EST 7:00 PM EST
Moon 2:06 PM EST (1/11) 3:56 AM EST (1/11)
Length of Visible Light 10h 29m
Length of Day
9h 29m
Waxing Gibbous, 83% of the Moon is Illuminated
Jan 11
Waxing Gibbous
Jan 15
Full
Jan 24
Last Quarter
Jan 30
New
Feb 6
First Quarter

Hourly Weather History & Observations

Time (EST) Temp. Windchill Dew Point Humidity Pressure Visibility Wind Dir Wind Speed Gust Speed Precip Events Conditions
12:52 AM 46.0 °F 39.9 °F 45.0 °F 96% 29.73 in 10.0 mi South 13.8 mph - N/A   Overcast
1:25 AM 46.4 °F 39.5 °F 46.4 °F 100% 29.70 in 10.0 mi South 17.3 mph - N/A   Overcast
1:32 AM 46.4 °F 39.8 °F 46.4 °F 100% 29.69 in 10.0 mi South 16.1 mph 24.2 mph N/A   Overcast
1:41 AM 46.4 °F 39.2 °F 46.4 °F 100% 29.69 in 10.0 mi South 18.4 mph - N/A   Overcast
1:52 AM 48.0 °F - 46.0 °F 93% 29.70 in 10.0 mi South 16.1 mph 26.5 mph N/A   Overcast
2:52 AM 48.0 °F - 46.9 °F 96% 29.68 in 10.0 mi South 18.4 mph 27.6 mph 0.00 in Rain Light Rain
3:20 AM 48.2 °F - 48.2 °F 100% 29.64 in 9.0 mi South 15.0 mph - 0.03 in Rain Light Rain
3:52 AM 48.9 °F - 48.0 °F 97% 29.63 in 10.0 mi South 17.3 mph 23.0 mph 0.06 in Rain Light Rain
4:00 AM 48.2 °F - 48.2 °F 100% 29.60 in 10.0 mi South 17.3 mph - N/A   Overcast
4:52 AM 48.0 °F - 48.0 °F 100% 29.60 in 6.0 mi South 15.0 mph - 0.04 in Rain Rain
5:52 AM 48.0 °F - 48.0 °F 100% 29.57 in 8.0 mi South 11.5 mph - 0.10 in Rain Rain
5:59 AM 48.2 °F - 48.2 °F 100% 29.56 in 9.0 mi South 13.8 mph - 0.01 in Rain Light Rain
6:11 AM 48.2 °F - 48.2 °F 100% 29.55 in 10.0 mi South 13.8 mph - 0.02 in Rain Light Rain
6:23 AM 48.2 °F - 48.2 °F 100% 29.55 in 8.0 mi South 13.8 mph 19.6 mph 0.04 in Rain Light Rain
6:50 AM 48.2 °F - 48.2 °F 100% 29.54 in 10.0 mi SSW 13.8 mph - 0.05 in   Overcast
6:52 AM 48.0 °F - 48.0 °F 100% 29.55 in 10.0 mi SSW 13.8 mph - 0.05 in   Mostly Cloudy
7:39 AM 48.2 °F - 48.2 °F 100% 29.49 in 10.0 mi South 10.4 mph - N/A   Overcast
7:52 AM 48.0 °F - 46.9 °F 96% 29.49 in 10.0 mi South 9.2 mph - N/A   Overcast
8:52 AM 48.0 °F - 46.9 °F 96% 29.48 in 10.0 mi SSW 13.8 mph - N/A   Overcast
9:52 AM 48.9 °F - 48.0 °F 97% 29.44 in 10.0 mi South 16.1 mph 20.7 mph N/A   Overcast
10:52 AM 48.9 °F - 48.9 °F 100% 29.45 in 4.0 mi South 16.1 mph - N/A   Overcast
10:59 AM 48.2 °F - 48.2 °F 100% 29.44 in 1.8 mi South 15.0 mph - 0.00 in Rain Light Rain
11:23 AM 48.2 °F - 48.2 °F 100% 29.41 in 3.0 mi South 15.0 mph 21.9 mph 0.04 in Rain Light Rain
11:52 AM 48.9 °F - 48.0 °F 97% 29.40 in 10.0 mi SSW 19.6 mph 27.6 mph 0.06 in   Overcast
12:52 PM 46.9 °F - 45.0 °F 93% 29.41 in 2.5 mi WSW 20.7 mph 26.5 mph 0.04 in Rain Rain
12:59 PM 46.4 °F 39.8 °F 44.6 °F 93% 29.40 in 7.0 mi WSW 16.1 mph 27.6 mph 0.01 in Rain Light Rain
1:06 PM 46.4 °F 40.4 °F 44.6 °F 93% 29.40 in 10.0 mi WSW 13.8 mph 27.6 mph 0.01 in   Overcast
1:35 PM 44.6 °F 37.2 °F 41.0 °F 87% 29.40 in 10.0 mi WSW 17.3 mph 26.5 mph 0.01 in   Overcast
1:52 PM 44.1 °F 35.0 °F 41.0 °F 89% 29.41 in 10.0 mi WSW 24.2 mph 35.7 mph 0.01 in   Overcast
2:52 PM 43.0 °F 34.5 °F 37.0 °F 80% 29.43 in 10.0 mi WSW 19.6 mph 29.9 mph N/A   Overcast
3:52 PM 39.0 °F 29.9 °F 33.1 °F 79% 29.48 in 10.0 mi WSW 17.3 mph 29.9 mph N/A   Overcast
4:42 PM 37.4 °F 29.8 °F 33.8 °F 87% 29.48 in 10.0 mi WSW 11.5 mph 26.5 mph N/A   Overcast
4:52 PM 37.0 °F 27.4 °F 33.1 °F 86% 29.51 in 10.0 mi WSW 17.3 mph 24.2 mph N/A   Overcast
5:28 PM 35.6 °F 25.5 °F 32.0 °F 87% 29.50 in 10.0 mi WSW 17.3 mph 29.9 mph N/A   Overcast
5:52 PM 35.1 °F 25.2 °F 32.0 °F 89% 29.54 in 10.0 mi West 16.1 mph 26.5 mph N/A   Overcast
6:26 PM 33.8 °F 23.2 °F 30.2 °F 87% 29.54 in 10.0 mi WSW 17.3 mph 33.4 mph N/A   Overcast
6:52 PM 34.0 °F 23.8 °F 30.9 °F 89% 29.58 in 10.0 mi WSW 16.1 mph 32.2 mph N/A   Overcast
7:52 PM 33.1 °F 22.6 °F 32.0 °F 96% 29.60 in 4.0 mi WSW 16.1 mph 28.8 mph N/A   Overcast
8:52 PM 33.1 °F 23.9 °F 32.0 °F 96% 29.64 in 4.0 mi WSW 12.7 mph 24.2 mph N/A   Overcast
9:52 PM 32.0 °F 22.1 °F 30.0 °F 92% 29.68 in 10.0 mi WSW 13.8 mph 21.9 mph N/A   Overcast
10:02 PM 32.0 °F 22.5 °F 30.2 °F 93% 29.66 in 10.0 mi WSW 12.7 mph 21.9 mph N/A   Overcast
10:52 PM 33.1 °F 24.4 °F 28.0 °F 82% 29.70 in 10.0 mi West 11.5 mph 27.6 mph N/A   Overcast
11:52 PM 33.1 °F 25.5 °F 28.9 °F 85% 29.72 in 10.0 mi WSW 9.2 mph 20.7 mph N/A   Overcast